Portada
METAR-TAF:

METAR-TAF

Aeroports :

Ramsar, Iran

latitud: 36-54N, longitud: 050-40E, altitud: -23 m

Observació

L'informe es va fer fa 21 minuts, a les 16:00 UTC
Vent 21 kt del Nord-Oest
Temperatura 7°C
Humitat 87%
Pressió 1015 hPa
Visibilitat 10 km o més
Escasses núvols a una alçada de 2000 ft, Cumulonimbus.
Núvols disperses a una alçada de 2500 ft
Cel cobert a una alçada de 8000 ft

METAR: OINR 201600Z 31021KT 9999 FEW020CB SCT025 OVC080 07/05 Q1015

Hora: 19:51 (16:21 UTC)


TAF: manca

Observacions i pronòstics meteorològics de més de 4000 aeroports (METAR i TAF).

Les estacions disponibles són els punts grocs i vermells al mapa.

Posi el ratolí al punt desitjat per veure el nom de l'estació.

Feu clic per veure les observacions i els pronòstics meteorològics.

Per canviar el mapa: feu clic els botons verds amb una creu de color negre per apropar; al botó verd amb un guió per allunyar la imatge; o en les fletxes verdes per a mapes adjacents.


METAR-TAF: